Location: Gollag?dem
(16.8053°N, 80.8024°E)
Time: 14:12:08
(UTC+00:00)

USA 281 - Pass Details

Date: 13 August 2020
Orbit: 1079 x 1080 km, 106.0° (Epoch: 07 September)

Event Time Altitude Azimuth Distance (km) Brightness Sun altitude
Rises 21:55:49 0° 27° (NNE) 3,870 6.9 -32.8°
Reaches altitude 10° 21:58:24 10° 32° (NNE) 2,913 6.2 -32.3°
Maximum altitude 22:04:46 55° 109° (ESE) 1,281 3.7 -31.0°
Enters shadow 22:06:40 42° 158° (SSE) 1,502 3.8 -30.6°
